Weather History for K8D3 - September, 2013

Change the Weather History Date:

Wednesday, September 4, 2013

  Actual Average Record
Temperature  
Mean Temperature 70 °F 64 °F  
Max Temperature 83 °F 77 °F 100 °F (1952)
Min Temperature 57 °F 52 °F 37 °F (1903)
Degree Days  
Heating Degree Days 0 3  
Month to date heating degree days 11 12  
Since 1 July heating degree days 60 55  
Cooling Degree Days 5 3  
Month to date cooling degree days 6 12  
Year to date cooling degree days 541 491  
Growing Degree Days 20 (Base 50)    
Moisture  
Dew Point 60 °F    
Average Humidity 72    
Maximum Humidity 97    
Minimum Humidity 47    
Precipitation  
Precipitation 0.00 in 0.06 in 1.20 in (1999)
Month to date precipitation 0.00 0.27  
Year to date precipitation 18.67 17.01  
Sea Level Pressure  
Sea Level Pressure 30.06 in    
Wind  
Wind Speed 5 mph (NNE)    
Max Wind Speed 12 mph    
Max Gust Speed 17 mph    
T = Trace of Precipitation, MM = Missing Value Source: NWS Daily Summary

Daily Weather History Graph

Daily Weather History Graph

Search for Another Location

Airport or City:

Trip Planner

Search our weather history database for the weather conditions in past years. The results will help you decide how hot, cold, wet, or windy it might be!

Date:

Astronomy

Sep. 04, 2013 Rise Set
Actual Time 6:53 AM CDT 7:59 PM CDT
Civil Twilight 6:22 AM CDT 8:30 PM CDT
Nautical Twilight 5:46 AM CDT 9:06 PM CDT
Astronomical Twilight 5:07 AM CDT 9:44 PM CDT
Moon 6:06 AM CDT (9/4) 7:18 PM CDT (9/4)
Length of Visible Light 14h 07m
Length of Day
13h 06m
Waning Crescent, 1% of the Moon is Illuminated
Sep 4
Waning Crescent
Sep 5
New
Sep 12
First Quarter
Sep 19
Full
Sep 26
Last Quarter

Hourly Weather History & Observations

Time (CDT) Temp. Heat Index Dew Point Humidity Pressure Visibility Wind Dir Wind Speed Gust Speed Precip Events Conditions
12:56 AM 59.0 °F - 57.9 °F 96% 29.97 in - Calm Calm - N/A   Unknown
1:56 AM 59.0 °F - 57.9 °F 96% 29.98 in - Calm Calm - N/A   Unknown
2:56 AM 57.0 °F - 55.9 °F 96% 29.98 in - Calm Calm - N/A   Unknown
3:56 AM 60.1 °F - 59.0 °F 96% 29.99 in - North 4.6 mph - N/A   Unknown
4:56 AM 59.0 °F - 57.9 °F 96% 30.02 in - NNW 4.6 mph - N/A   Unknown
5:56 AM 59.0 °F - 57.9 °F 96% 30.03 in - North 5.8 mph - N/A   Unknown
6:56 AM 59.0 °F - 57.9 °F 96% 30.06 in - North 6.9 mph - N/A   Unknown
7:56 AM 59.0 °F - 55.9 °F 90% 30.08 in - North 6.9 mph - N/A   Unknown
8:56 AM 61.0 °F - 54.0 °F 78% 30.09 in - North 8.1 mph - N/A   Unknown
9:56 AM 64.9 °F - 55.9 °F 73% 30.09 in - North 6.9 mph - N/A   Unknown
10:56 AM 70.0 °F - 59.0 °F 68% 30.10 in - Variable 3.5 mph - N/A   Unknown
11:56 AM 73.9 °F - 63.0 °F 68% 30.09 in - Variable 4.6 mph - N/A   Unknown
12:56 PM 78.1 °F - 64.9 °F 64% 30.09 in - NE 6.9 mph - N/A   Unknown
1:56 PM 79.0 °F - 64.9 °F 62% 30.08 in - NE 6.9 mph - N/A   Unknown
2:56 PM 80.1 °F 81.7 °F 64.0 °F 58% 30.08 in - East 5.8 mph - N/A   Unknown
3:56 PM 82.9 °F 84.0 °F 63.0 °F 51% 30.06 in - ENE 9.2 mph - N/A   Unknown
4:56 PM 82.0 °F 82.7 °F 61.0 °F 49% 30.06 in - ESE 5.8 mph - N/A   Unknown
5:56 PM 82.0 °F 82.7 °F 61.0 °F 49% 30.05 in - East 6.9 mph - N/A   Unknown
6:56 PM 81.0 °F 82.5 °F 64.0 °F 56% 30.05 in - ENE 3.5 mph - N/A   Unknown
7:56 PM 73.0 °F - 64.9 °F 76% 30.06 in - East 3.5 mph - N/A   Unknown
8:56 PM 69.1 °F - 62.1 °F 78% 30.09 in - ENE 4.6 mph - N/A   Unknown
9:56 PM 66.9 °F - 59.0 °F 76% 30.10 in - NE 3.5 mph - N/A   Unknown
10:56 PM 64.9 °F - 57.9 °F 78% 30.11 in - NNW 3.5 mph - N/A   Unknown
11:56 PM 63.0 °F - 57.0 °F 81% 30.11 in - Calm Calm - N/A   Unknown